Das Wetter in  D-61279 Heinzenberg / Taunus





Wetter Minimum- & Maximum-Werte im August 2014

Standort: Heinzenberg / Taunus - Höhe 297 m         8 24' 1" Ost 50 21' 51" Nord
(   3-stündige Aktualisierung    letzte Aktualisierung um 19:04 am 31.08.2014  )


Messgrösse

Minimum

Maximum

Durchschnitt

Temperatur West /
Luftfeuchte West
Anklicken für Monats-Diagramm

6,2 C

07:04
20.08.2014

42 %

17:36
12.08.2014

28,2 C

18:07
02.08.2014

98 %

08:40
06.08.2014

Temp

16,0 C

Feuchte

75 %

Temperatur Ost /
Luftfeuchte Ost
Anklicken für Monats-Diagramm

-18,5 C

19:02
08.08.2014

--

--
--

79,7 C

15:19
04.08.2014

--

--
--

18,5 C

--

Luftdruck Anklicken für Monats-Diagramm

1003,6 hPa

16:22
13.08.2014

1020,5 hPa

00:50
06.08.2014

1013,4 hPa

Taupunkt

3,8 C

07:10
21.08.2014

18,6 C

17:12
02.08.2014

11,3 C

Windchill
( gefühlte Temperatur )

2,7 C

10:12
18.08.2014

27,6 C

14:32
08.08.2014

14,5 C

Windgeschwindigkeit /
Windrichtung
Anklicken für Monats-Diagramm

---

49,8 km/h / W-SW

15:58
19.08.2014

8,1 km/h
W-SW

Helligkeit /
Sonnenschein
Anklicken für Monats-Diagramm
Anklicken für Monats-Diagramm

Sonnenschein:

139:39 Stunden

Max: 9:19 Std am
11.08.2014

99 klux

14:10
16.08.2014

28,2 klux

Solarstrahlung Anklicken für Monats-Diagramm

---

674 W/m

14:10
16.08.2014

206 W/m

Regenmenge
    August 2014
Anklicken für Monats-Diagramm

Insgesamt 146,5 l/m

in 62:35 Stunden
an 22 Tagen

48,0 l/m

04:35
26.08.2014

Gesamtmenge

146,5 l/m

Regen-Tage
    August 2014
Anklicken für Monats-Diagramm

>   0 mm/Tag

>   2 mm/Tag

>   5 mm/Tag

> 10 mm/Tag

> 20 mm/Tag

22 Tage     
6 Tage     
3 Tage     
3 Tage     
3 Tage     

Eisige Tage August 2014 / 2013

Tmin ≤ -10C     

0 Tage

/

0 Tage

Eistage August 2014 / 2013

Tmax <     0C     

0 Tage

/

0 Tage

Frosttage August 2014 / 2013

Tmin ≤     0C     

0 Tage

/

0 Tage

Kalte Tage August 2014 / 2013

Tmax <   10C     

0 Tage

/

0 Tage

Warme Tage August 2014 / 2013

Tmax ≥   20C     

18 Tage

/

28 Tage

Sommertage August 2014 / 2013

Tmax ≥   25C     

7 Tage

/

18 Tage

Heisse Tage August 2014 / 2013

Tmax ≥   30C     

0 Tage

/

4 Tage


Monatsdiagramm August 2014

Die Kurven zeigen den Durchschnittswert des jeweiligen Tages an


Wetter-Monatsübersicht August 2014
Datum
  Temperatur
   Luftdruck
   Wind
  Regen
   Luftfeuchte
   Helligkeit

Sonnen-
schein


Temp.

Min.
Temp.

Max.
Temp.


Luftdruck

Min.
Luftdruck

Max.
Luftdruck

-Geschw.
Haupt-Richtg.

Max.
Wind

Menge /
Dauer


Feuchte

Min.
Feuchte

Max.
Feuchte


Helligkeit

Max.
Helligkeit

1.
August
19,9 C12,3 C
06:51
27,2 C
14:36
1011,4 hPa1008,7 hPa
19:06
1014,4 hPa
04:41
3,5 km/h
SO
20,1 km/h
14:06  
---
69 %49 %
14:26
86 %
07:31
31,0 klux88,9 klux
14:06
5:10 Std 
2.
August
19,4 C12,4 C
06:27
28,2 C
18:07
1007,9 hPa1005,4 hPa
18:07
1011,0 hPa
01:02
4,5 km/h
W-SW
22,8 km/h
17:22  
---
74 %53 %
17:52
86 %
08:22
26,2 klux82,9 klux
16:52
2:40 Std 
3.
August
20,4 C16,8 C
04:18
25,8 C
14:23
1010,5 hPa1008,6 hPa
00:03
1012,8 hPa
23:59
2,9 km/h
NW
20,3 km/h
14:28  
1,4 l/m
15 Minuten
76 %53 %
14:38
88 %
07:48
26,7 klux88,6 klux
14:08
2:00 Std 
4.
August
18,9 C14,6 C
06:49
24,8 C
14:09
1014,7 hPa1012,8 hPa
01:09
1017,1 hPa
23:55
5,6 km/h
NW
24,3 km/h
18:24  
1,8 l/m
1:25 Stunden
78 %58 %
14:19
89 %
07:39
31,3 klux92,9 klux
13:29
5:01 Std 
5.
August
18,3 C15,0 C
06:00
23,8 C
16:55
1018,6 hPa1017,1 hPa
00:00
1020,4 hPa
23:55
3,3 km/h
NW
14,5 km/h
15:35  
---
75 %54 %
16:10
90 %
08:15
27,5 klux79,2 klux
11:50
4:15 Std 
6.
August
18,4 C11,2 C
06:25
26,1 C
17:55
1017,0 hPa1013,2 hPa
19:00
1020,5 hPa
00:50
5,2 km/h
W-SW
27,3 km/h
21:25  
---
69 %43 %
18:05
98 %
08:40
36,7 klux82,4 klux
13:35
6:11 Std 
7.
August
19,5 C15,3 C
05:46
26,5 C
18:41
1014,7 hPa1012,9 hPa
18:26
1016,1 hPa
23:56
4,9 km/h
W-SW
23,5 km/h
12:26  
0,3 l/m
45 Minuten
69 %48 %
17:41
84 %
07:31
33,0 klux95,8 klux
13:21
6:00 Std 
8.
August
19,3 C11,8 C
06:52
27,8 C
14:32
1012,7 hPa1007,5 hPa
23:13
1016,6 hPa
06:17
5,9 km/h
SO
26,0 km/h
15:17  
0,8 l/m
50 Minuten
72 %46 %
14:42
86 %
07:37
32,5 klux85,4 klux
14:12
6:35 Std 
9.
August
19,9 C14,7 C
23:59
25,5 C
18:18
1010,3 hPa1005,5 hPa
03:33
1014,2 hPa
23:59
14,4 km/h
W-SW
45,0 km/h
11:08  
3,0 l/m
16 Minuten
72 %50 %
17:18
88 %
04:53
33,5 klux88,9 klux
13:28
6:55 Std 
10.
August
18,3 C13,8 C
02:14
24,2 C
13:44
1008,8 hPa1005,4 hPa
20:24
1014,3 hPa
00:39
9,5 km/h
W-SW
30,3 km/h
22:14  
29,5 l/m
5:46 Stunden
81 %66 %
13:44
90 %
20:19
20,2 klux98,4 klux
13:34
2:56 Std 
11.
August
17,1 C12,8 C
06:25
22,4 C
18:05
1012,3 hPa1006,6 hPa
00:00
1014,3 hPa
23:56
16,5 km/h
W
40,3 km/h
15:40  
---
69 %47 %
18:05
89 %
00:00
38,9 klux92,0 klux
14:45
9:19 Std 
12.
August
17,1 C13,4 C
01:41
23,7 C
17:41
1012,4 hPa1009,2 hPa
18:56
1014,4 hPa
00:16
14,1 km/h
W-SW
37,4 km/h
11:56  
---
20 Minuten
62 %42 %
17:36
77 %
07:06
36,6 klux85,3 klux
13:26
7:40 Std 
13.
August
15,3 C13,2 C
05:22
19,1 C
11:27
1006,7 hPa1003,6 hPa
16:22
1011,2 hPa
00:37
4,4 km/h
W
21,6 km/h
18:32  
45,4 l/m
5:50 Stunden
80 %68 %
11:42
91 %
22:28
12,1 klux43,9 klux
09:22
35 Min 
14.
August
14,9 C11,3 C
06:58
20,5 C
18:18
1011,2 hPa1009,1 hPa
00:03
1012,4 hPa
23:19
11,4 km/h
W-SW
35,7 km/h
13:38  
1,8 l/m
1:20 Stunden
80 %62 %
17:33
90 %
00:03
29,6 klux90,6 klux
16:08
5:30 Std 
15.
August
13,7 C11,5 C
06:54
17,5 C
18:24
1012,7 hPa1011,4 hPa
02:44
1015,5 hPa
23:00
7,0 km/h
W
23,8 km/h
16:54  
3,0 l/m
2:25 Stunden
83 %73 %
13:44
89 %
08:19
20,8 klux75,1 klux
13:34
45 Min 
16.
August
14,7 C12,2 C
06:45
19,3 C
18:45
1018,1 hPa1016,5 hPa
02:00
1019,5 hPa
10:25
14,4 km/h
W
30,7 km/h
11:10  
1,1 l/m
3:00 Stunden
80 %58 %
17:25
91 %
08:05
28,2 klux98,6 klux
14:10
3:40 Std 
17.
August
15,3 C12,9 C
03:01
17,3 C
19:26
1013,6 hPa1008,9 hPa
20:26
1019,4 hPa
00:31
18,6 km/h
W-SW
40,3 km/h
14:46  
---
10 Minuten
72 %60 %
17:26
84 %
02:51
18,4 klux86,4 klux
15:11
1:35 Std 
18.
August
15,0 C11,7 C
10:27
19,1 C
17:47
1008,4 hPa1007,0 hPa
04:22
1011,4 hPa
23:48
19,1 km/h
W
46,9 km/h
16:22  
1,4 l/m
2:15 Stunden
71 %55 %
19:02
89 %
11:07
31,3 klux94,3 klux
11:47
5:00 Std 
19.
August
12,4 C7,5 C
06:28
19,6 C
15:13
1012,0 hPa1009,5 hPa
15:13
1015,8 hPa
23:59
9,9 km/h
W-SW
49,8 km/h
15:58  
0,5 l/m
1:20 Stunden
76 %52 %
15:18
88 %
08:48
29,5 klux88,2 klux
13:03
5:50 Std 
20.
August
12,3 C6,2 C
07:04
17,8 C
14:24
1016,4 hPa1015,0 hPa
17:49
1018,1 hPa
08:44
4,2 km/h
W-SW
19,3 km/h
13:49  
---
72 %51 %
14:14
88 %
08:19
33,2 klux79,5 klux
12:14
5:45 Std 
21.
August
12,4 C6,2 C
07:30
20,0 C
17:55
1017,1 hPa1014,8 hPa
19:20
1018,9 hPa
09:35
5,7 km/h
W
22,1 km/h
11:35  
---
69 %48 %
17:55
87 %
08:40
34,1 klux82,5 klux
14:40
6:50 Std 
22.
August
13,1 C6,8 C
05:51
19,2 C
16:41
1014,4 hPa1011,9 hPa
18:36
1017,1 hPa
01:36
9,7 km/h
W-SW
34,3 km/h
14:11  
---
67 %48 %
13:56
86 %
08:51
26,8 klux96,0 klux
13:41
3:50 Std 
23.
August
13,1 C11,1 C
23:13
18,8 C
15:32
1013,9 hPa1012,7 hPa
15:32
1016,7 hPa
23:13
9,2 km/h
W-SW
37,9 km/h
16:12  
0,9 l/m
2:55 Stunden
76 %57 %
15:42
85 %
07:17
23,2 klux97,2 klux
14:47
2:25 Std 
24.
August
11,9 C7,7 C
03:43
18,3 C
17:43
1018,7 hPa1016,7 hPa
00:03
1019,9 hPa
23:54
8,3 km/h
W-SW
33,5 km/h
16:28  
0,5 l/m
1:21 Stunden
74 %55 %
17:53
88 %
08:03
30,4 klux88,6 klux
14:33
6:30 Std 
25.
August
12,4 C7,0 C
04:44
18,6 C
13:09
1015,3 hPa1010,2 hPa
23:05
1020,1 hPa
01:09
7,2 km/h
W-SW
29,1 km/h
13:29  
0,5 l/m
2:11 Stunden
78 %59 %
11:54
88 %
09:24
21,6 klux86,3 klux
12:59
1:40 Std 
26.
August
13,3 C11,7 C
06:55
15,6 C
15:20
1006,1 hPa1004,1 hPa
09:05
1010,3 hPa
00:00
1,9 km/h
O-SO
16,5 km/h
00:40  
48,0 l/m
20:11 Stunden
89 %83 %
00:00
91 %
09:50
10,8 klux43,7 klux
12:20
--- 
27.
August
15,5 C11,1 C
23:57
23,2 C
18:26
1014,6 hPa1008,3 hPa
00:01
1018,8 hPa
23:57
2,4 km/h
NO
15,3 km/h
11:56  
1,5 l/m
3:15 Stunden
76 %47 %
17:21
92 %
05:41
38,6 klux87,7 klux
13:41
8:55 Std 
28.
August
15,6 C8,6 C
05:17
22,9 C
13:42
1016,8 hPa1014,5 hPa
18:37
1019,0 hPa
02:12
4,8 km/h
W-SW
27,3 km/h
13:57  
---
76 %57 %
13:37
89 %
09:22
31,9 klux84,6 klux
13:22
5:30 Std 
29.
August
17,9 C14,3 C
01:48
24,3 C
16:53
1015,8 hPa1014,1 hPa
16:53
1017,2 hPa
23:54
6,2 km/h
W
26,1 km/h
13:53  
0,6 l/m
1:10 Stunden
77 %57 %
16:58
89 %
04:53
31,4 klux83,6 klux
13:18
4:50 Std 
30.
August
15,9 C11,4 C
06:44
21,7 C
16:19
1017,7 hPa1016,2 hPa
22:09
1018,8 hPa
06:44
7,4 km/h
W
32,4 km/h
10:29  
2,9 l/m
2:50 Stunden
80 %61 %
16:24
90 %
08:09
23,6 klux95,5 klux
13:14
2:41 Std 
31.
August
14,7 C11,8 C
23:45
18,4 C
17:44
1014,9 hPa1013,8 hPa
17:44
1016,6 hPa
23:45
7,7 km/h
W
26,4 km/h
17:19  
1,7 l/m
2:45 Stunden
83 %68 %
14:14
90 %
06:39
24,8 klux94,3 klux
12:44
3:06 Std 



August
2014

Temperatur

  

Luftdruck

  

Wind

  

Regen

  

Luftfeuchte

  

Helligkeit

Sonnen-
schein

Min

Max

Min

Max

Max

Max

Min

Max

Max

Max

16,0 C

6,2 C

07:04 Uhr
20.08.2014

28,2 C

18:07 Uhr
02.08.2014

1013,4 hPa

1003,6 hPa

16:22 Uhr
13.08.2014

1020,5 hPa

00:50 Uhr
06.08.2014

8,1 km/h

W-SW

49,8 km/h

15:58 Uhr
19.08.2014

48,0 l/m

20:11 Stunden
26.08.2014

75 %

42 %

17:36 Uhr
12.08.2014

98 %

08:40 Uhr
06.08.2014

28,2 klux

98,6 klux

14:10 Uhr
16.08.2014

9:19 Std

am
11.08.2014

Gesamt

Gesamt

146,5 l/m

22 Tage
62:35 h

139:39 Std


Wetter-Diagramme August 2014     Heinzenberg / Taunus   
TemperaturLuftfeuchte
SolarstrahlungLuftdruck
HelligkeitSonnenschein
RegenmengeRegendauer
Wind-GeschwindigkeitWind-Richtung